User: anonymous   Login
Location: Unspecified
(0.0000°N, 0.0000°E)
Time: 12:37:34
(UTC+00:00)
Language:

Okean 1-7 - Orbit

View from above orbital plane
View from above orbital plane
View from above satellite
View from above satellite

Ground track
Ground track

The orbit data is extracted from the following two-line orbital elements,

1 23317U 94066A   18171.90256524  .00000190  00000-0  18177-4 0  9990
2 23317  82.5373 131.5359 0018170 282.4385  77.4799 14.87564302280757
Epoch (UTC): 20 June 2018 21:39:41
Eccentricity: 0.0018170
inclination: 82.5373°
perigee height: 593 km
apogee height: 618 km
right ascension of ascending node: 131.5359°
argument of perigee: 282.4385°
revolutions per day: 14.87564302
mean anomaly at epoch: 77.4799°
orbit number at epoch: 28075

The dashed part of the orbit path shows where the satellite is in the earth's shadow,  

DLR